SCP
3 2 2 1 1 0 0 0 0 0 1 1 1 1 1 1 0 0 0 0 0 0 0 1 1 1 1 1 1 1 1 0 0 0 0 0 1 1 1 1 1 1 1 1 1 1 1 2 2
2 2 1 1 1 0 0 0 0 1 1 1 1 0 1 1 0 0 0 1 0 0 0 1 1 1 1 1 1 1 1 0 0 0 0 1 1 1 1 1 1 1 1 1 1 1 1 1 1
2 2 1 1 1 0 0 0 1 1 1 1 1 0 0 1 1 1 1 1 0 0 0 1 1 1 1 0 0 0 1 1 1 0 1 1 1 1 1 1 1 1 1 1 1 1 1 1 1
2 2 1 1 0 0 0 0 1 1 2 2 1 1 0 1 1 1 1 1 1 0 4 6 4 1 1 0 0 1 1 1 1 1 1 1 1 1 1 1 1 1 1 1 1 1 1 1 1
2 1 1 0 0 0 0 1 1 1 2 2 1 1 1 1 2 2 1 1 1 1 6 12 7 1 1 1 1 1 2 1 1 1 1 1 1 1 1 1 1 1 1 1 1 1 1 1 1
2 1 0 0 0 0 0 1 1 1 2 1 1 1 1 2 3 2 1 1 1 1 4 7 5 2 1 1 1 2 2 2 1 1 1 1 2 2 2 2 1 1 1 1 1 1 1 1 1
2 1 0 0 0 0 0 1 1 1 1 1 1 1 1 3 4 3 2 1 1 1 1 1 1 1 1 1 1 2 3 2 2 1 1 2 2 2 2 2 2 1 1 1 1 1 1 1 1
1 1 0 0 0 0 0 1 1 1 1 1 1 1 1 3 4 4 2 2 1 1 1 1 1 1 1 1 1 2 2 3 2 2 2 2 2 2 2 2 1 1 1 1 1 1 1 1 1
1 1 0 0 0 0 1 1 1 1 1 1 1 1 2 4 5 5 3 2 2 2 1 1 1 1 1 1 1 1 1 2 2 2 2 1 1 1 2 2 1 1 1 1 1 1 1 1 1
1 0 0 0 0 0 1 1 1 1 1 1 1 1 2 4 5 5 4 3 3 2 1 1 1 1 1 1 1 1 1 1 1 1 1 1 1 1 2 2 1 1 1 1 1 1 1 0 0
0 0 0 0 0 0 1 1 1 1 1 2 2 2 2 3 3 3 3 3 3 2 1 1 1 1 1 1 1 1 0 0 0 0 0 1 1 1 1 1 1 1 1 1 1 1 0 0 0
0 0 0 0 0 0 1 1 1 1 1 2 2 2 2 2 2 2 2 3 3 3 2 1 1 1 1 1 1 1 1 0 0 0 0 0 1 1 1 1 1 1 0 0 0 0 0 0 0
0 0 0 0 0 1 1 1 1 1 2 2 2 3 3 3 2 2 2 3 3 3 2 2 1 1 1 1 1 1 1 1 1 0 0 0 0 0 0 0 0 0 0 0 0 0 0 0 0
0 0 0 0 0 1 1 1 1 2 3 3 3 4 5 4 3 3 3 3 3 3 2 2 2 1 1 1 1 1 1 1 1 1 1 0 0 0 0 0 0 0 0 0 0 0 0 0 0
0 0 0 0 0 1 1 1 1 2 3 3 3 4 5 4 3 3 3 3 3 3 3 2 1 1 1 1 1 1 1 1 1 1 1 1 0 0 0 0 0 0 0 0 0 0 0 0 0
0 0 0 0 0 1 1 1 1 2 3 3 3 4 4 3 3 2 2 2 3 3 3 2 2 1 1 1 1 1 0 0 1 1 1 1 1 1 0 0 0 0 0 0 0 0 0 0 0
0 0 0 0 0 1 1 1 2 3 4 3 3 3 3 3 2 2 2 2 3 3 3 3 2 2 1 1 1 1 0 0 1 1 2 1 1 1 1 0 0 0 0 0 0 0 0 0 0
0 0 0 0 0 0 0 1 2 3 3 3 2 2 2 2 2 2 2 2 3 3 3 3 2 2 2 1 1 1 1 1 1 2 2 2 2 1 1 1 0 0 0 0 0 0 0 0 0
0 0 0 0 0 0 0 1 1 2 2 2 2 2 2 2 2 2 2 2 3 3 3 3 3 2 2 2 2 1 1 1 1 2 2 2 2 2 2 1 0 0 0 0 0 0 0 0 0
0 1 1 1 0 1 1 1 1 1 2 2 3 2 2 2 2 2 2 3 3 3 3 3 3 3 3 2 2 1 1 2 1 2 2 3 3 2 2 1 1 0 0 0 0 0 0 0 0
0 1 1 1 0 1 1 1 1 1 2 3 4 3 3 2 2 2 3 3 3 3 3 3 3 3 3 3 2 2 2 2 2 2 2 3 3 3 2 1 1 0 0 0 0 0 0 0 0
0 0 0 0 0 0 0 0 1 1 3 5 5 4 3 3 3 3 3 3 3 3 3 3 3 3 3 3 2 2 2 2 2 2 2 2 3 3 2 1 1 1 0 0 0 0 0 0 0
0 0 0 0 0 0 0 0 1 2 4 5 6 5 4 3 3 3 3 4 4 4 4 4 4 4 3 3 2 3 3 3 2 2 2 2 2 2 2 1 1 1 1 0 0 0 0 0 0
0 0 0 0 0 0 0 0 1 2 4 6 6 5 4 3 3 4 5 7 7 6 6 5 5 4 4 3 3 3 3 3 3 2 2 2 2 2 2 1 1 1 1 1 1 0 0 0 0
0 0 0 0 0 0 0 1 2 3 5 6 6 5 4 3 3 5 8 11 11 9 7 7 6 6 5 4 4 4 4 4 4 3 2 3 3 2 2 1 1 1 1 1 1 0 0 0 0
0 0 0 0 0 0 0 1 2 4 5 6 6 5 5 4 5 7 11 13 12 10 8 8 7 6 5 5 4 5 5 4 4 3 3 3 3 2 1 1 1 1 1 1 1 1 0 1 1
0 0 0 0 0 0 0 1 2 3 4 5 6 6 6 5 5 8 11 11 10 9 9 8 7 6 5 5 4 4 4 4 4 4 3 3 2 2 1 1 1 1 1 1 1 1 1 0 1
0 0 0 0 0 0 0 1 2 3 4 5 6 6 5 5 5 7 8 8 8 8 8 6 5 5 4 4 4 4 4 4 4 4 4 3 3 2 1 1 1 1 1 1 1 1 1 1 1
0 0 0 0 0 0 0 1 1 2 3 4 5 4 4 5 5 5 5 5 5 6 5 5 5 4 4 3 3 4 4 4 4 4 4 4 3 3 2 2 2 1 1 1 1 1 1 1 1
0 0 0 0 0 0 0 1 1 2 3 3 4 3 4 4 5 5 4 3 3 4 4 4 5 4 3 3 3 3 3 4 4 5 5 5 4 4 3 2 2 2 1 1 1 1 0 0 0
Wind_Speed
11 8 4 1 3 5 6 6 8 9 8 9 12 11 11 9 7 7 3 8 10 8 6 9 11 12 12 12 12 12 11 12 12 12 12 12 13 13 13 14 14 14 15 15 15 15 14 14 15
8 6 2 2 5 5 4 6 11 11 11 12 13 13 12 9 9 9 6 9 10 8 6 8 11 12 12 12 12 11 11 11 11 11 12 12 12 12 12 13 13 14 14 14 14 14 13 13 13
7 4 2 4 3 5 5 7 11 12 11 10 8 8 7 6 7 7 8 12 9 7 5 8 12 12 11 11 11 10 10 10 10 11 11 11 11 12 12 13 13 13 13 13 13 12 12 12 12
3 2 3 5 5 4 8 8 11 13 10 9 9 8 5 5 5 10 14 13 11 7 5 7 12 11 11 11 10 10 9 9 10 11 11 11 11 11 12 12 12 12 12 12 11 11 10 11 11
2 3 5 4 4 6 9 11 11 11 7 10 12 10 6 5 11 15 14 13 11 7 5 7 12 11 10 10 10 9 9 9 10 11 12 11 11 11 11 11 11 11 10 10 10 10 9 9 9
3 4 5 4 6 7 7 11 14 15 14 12 11 9 4 6 11 12 13 11 10 9 6 6 11 12 10 10 10 10 10 10 11 12 11 11 11 10 10 10 10 10 10 9 9 9 8 8 7
4 3 4 6 7 7 7 8 12 12 11 8 9 7 4 5 9 12 12 10 9 8 6 4 5 7 10 10 10 10 10 10 11 11 11 10 10 10 10 9 10 10 9 9 9 8 7 6 5
5 5 4 5 7 6 6 7 9 12 10 11 7 7 6 6 10 11 10 9 8 7 6 5 3 3 4 5 9 9 9 10 10 10 10 10 9 9 9 8 8 9 9 8 8 7 6 5 5
4 5 5 6 7 6 8 12 8 8 10 6 5 8 10 12 12 11 9 7 6 7 5 5 4 3 3 3 6 7 8 8 8 7 9 7 3 3 4 6 7 8 7 7 7 6 5 4 3
6 6 7 6 8 9 11 13 9 8 11 9 10 10 11 11 11 10 9 7 6 6 6 5 5 4 4 4 3 2 3 3 3 2 3 3 2 2 3 5 7 7 6 6 6 5 3 2 0
6 8 7 8 10 11 11 10 8 11 9 12 14 13 11 10 9 9 8 7 7 6 6 5 6 5 4 3 3 2 1 2 2 3 3 2 2 1 1 1 2 2 3 2 2 2 1 1 1
7 7 9 8 9 11 10 9 8 8 10 13 13 12 11 10 9 8 8 6 6 6 5 5 5 5 4 4 3 3 2 2 2 2 4 3 2 2 2 1 1 1 1 1 1 1 2 2 3
7 5 7 9 10 11 12 10 9 9 13 13 13 11 10 9 8 7 8 7 6 5 5 4 5 5 4 4 3 3 3 2 2 2 3 4 3 3 2 2 2 2 1 2 2 2 2 2 3
5 5 6 7 9 9 13 10 8 10 13 13 12 10 9 9 9 8 7 6 5 5 5 4 4 4 4 3 3 3 3 3 3 2 3 4 3 3 3 2 2 2 2 2 2 2 2 2 1
6 7 5 4 6 7 11 7 8 12 12 12 11 10 10 8 9 9 9 8 7 6 5 4 4 4 4 3 3 3 3 3 2 2 3 3 3 3 3 2 2 2 2 2 1 1 1 1 1
6 5 2 1 3 5 9 6 7 11 13 11 10 10 9 8 8 8 9 7 6 6 6 5 5 4 3 2 2 2 2 3 2 2 2 3 3 4 3 2 2 2 1 1 2 1 1 0 0
4 2 2 3 3 4 5 5 7 9 12 11 10 9 9 8 7 7 9 8 7 7 6 5 4 4 3 2 2 2 2 2 2 2 2 2 3 3 3 2 2 2 1 1 2 2 2 1 1
3 3 3 3 3 5 4 4 9 9 10 11 10 10 10 10 9 9 8 8 7 6 6 5 4 4 3 2 1 1 1 1 1 2 2 3 2 3 3 2 2 2 1 1 1 2 1 1 2
7 5 3 3 4 4 5 6 9 9 9 9 8 9 9 9 8 8 9 8 7 6 5 5 5 4 3 2 1 1 1 0 0 1 2 2 2 3 3 2 1 2 2 2 2 2 1 1 1
4 4 2 1 4 5 5 4 6 8 10 12 12 11 11 8 7 8 8 8 8 7 6 5 5 4 3 2 2 2 2 1 1 1 1 1 2 2 3 3 2 2 2 2 1 1 1 1 1
2 5 5 4 2 3 5 2 3 5 4 7 9 10 10 12 11 10 9 8 8 7 7 6 5 5 4 3 2 1 2 1 1 0 0 1 2 2 2 3 3 2 2 2 2 2 3 1 1
3 5 5 6 5 2 4 2 4 5 5 6 7 8 10 10 10 10 9 9 9 8 6 5 5 4 4 4 3 3 2 2 2 2 1 1 1 1 2 2 3 3 2 2 2 2 2 2 1
7 5 4 4 4 3 1 4 5 2 4 7 8 10 10 11 12 11 11 10 9 8 7 5 5 4 4 3 3 3 2 2 1 1 1 1 1 1 1 2 2 3 2 3 2 2 2 2 3
4 3 4 5 5 2 3 4 4 4 8 7 7 9 9 11 11 10 9 8 7 7 6 6 5 4 4 4 3 4 4 3 2 1 1 1 1 1 1 1 1 2 2 3 3 2 3 2 2
5 6 4 5 4 3 2 3 6 5 5 8 10 9 9 9 9 9 9 9 8 8 7 6 6 4 3 4 3 3 4 4 3 2 2 2 1 1 1 1 1 1 2 2 2 2 2 2 2
3 9 8 5 4 3 2 1 5 3 2 4 7 8 8 8 8 9 9 9 9 9 8 7 6 4 4 3 3 2 3 2 2 2 2 2 2 2 1 1 1 1 1 1 1 1 1 1 1
3 3 8 8 3 2 2 2 5 2 3 4 6 7 8 9 9 8 8 8 8 8 7 7 7 5 4 3 3 2 1 2 2 2 2 1 1 1 1 1 1 1 1 1 2 1 1 1 1
6 6 6 6 5 2 1 2 4 4 3 4 6 7 6 8 8 8 7 8 8 7 7 7 7 6 4 3 3 2 2 1 2 2 2 1 1 1 1 1 1 1 1 1 2 1 0 1 1
1 3 6 5 6 7 3 6 7 9 8 8 8 7 8 8 8 8 7 7 8 8 7 7 6 5 4 3 3 2 2 2 2 1 1 2 1 1 2 1 2 2 2 1 1 1 1 1 1
4 5 7 5 3 5 5 7 5 6 7 7 7 7 7 8 7 7 8 8 8 8 8 7 6 5 5 5 4 3 2 2 2 2 2 2 2 1 1 2 2 2 2 1 2 1 1 1 2
Wind_Direction
156 159 166 162 51 53 70 80 92 81 67 65 72 78 75 66 90 119 149 133 129 130 126 118 116 112 109 107 106 104 104 104 104 105 105 107 109 109 111 113 115 115 114 113 113 112 114 116 118
159 166 170 60 73 76 74 88 90 95 111 104 83 82 77 72 88 112 127 136 130 127 122 120 118 115 111 109 108 108 107 106 108 109 110 110 112 113 114 117 118 118 117 117 117 117 117 118 119
172 184 98 66 89 122 121 110 107 104 101 94 88 69 68 96 108 125 142 138 125 120 119 123 119 117 114 111 109 110 110 110 113 116 117 116 115 116 115 118 122 122 121 120 121 122 122 122 124
159 104 58 73 99 118 120 121 115 106 86 80 92 73 66 102 118 131 137 133 126 125 125 127 122 120 118 114 112 112 113 115 119 124 123 121 120 119 120 120 123 125 124 124 124 124 124 123 125
92 83 65 74 97 104 112 116 112 102 88 89 93 96 85 82 112 127 135 133 130 131 133 133 128 126 123 117 114 113 111 113 119 124 124 120 120 120 122 123 123 124 129 129 127 127 123 124 128
79 78 84 97 102 99 106 112 106 101 110 107 103 104 105 122 124 131 133 134 137 140 143 140 137 135 131 125 121 117 113 116 119 122 123 121 120 120 120 124 126 127 128 132 130 128 125 124 124
116 99 124 124 107 104 118 117 112 122 125 119 121 103 116 125 131 131 132 135 138 140 139 136 138 136 138 134 128 123 119 117 119 123 125 124 124 123 124 126 127 132 136 138 136 136 137 136 135
151 116 105 106 108 112 120 105 114 122 116 129 126 121 148 147 129 126 128 133 138 140 141 138 136 131 134 135 135 130 125 124 127 130 130 131 131 130 130 130 133 137 140 143 143 145 148 151 152
122 96 125 140 128 132 117 105 99 98 109 115 99 122 142 135 126 124 122 123 136 143 149 153 151 142 140 147 140 136 132 131 131 132 135 129 118 122 129 140 141 142 144 148 151 154 160 165 160
123 125 159 156 141 136 126 120 119 106 103 105 108 118 131 131 129 130 134 138 144 151 160 163 160 161 170 158 129 125 128 128 129 130 130 125 132 149 149 154 154 152 154 157 162 168 174 172 163
118 129 135 128 132 125 120 117 112 120 124 141 144 147 145 137 133 136 141 147 152 155 155 155 161 164 164 146 142 137 126 134 138 152 156 146 138 139 137 135 151 155 161 159 171 185 199 200 209
101 119 124 130 128 124 127 122 117 132 149 150 146 145 145 143 144 145 145 150 147 143 146 146 152 154 152 146 153 156 152 151 150 159 152 146 144 148 154 151 165 172 172 187 201 205 219 228 227
89 113 118 121 120 127 122 119 117 123 135 138 138 133 139 145 144 146 146 148 142 141 145 148 143 144 143 139 149 148 155 155 162 160 162 157 151 159 164 177 181 195 185 184 197 213 222 215 212
125 109 110 119 115 123 119 117 107 134 137 139 141 142 143 146 145 142 144 144 146 151 154 149 140 144 139 142 147 149 160 161 165 163 173 167 160 158 159 166 176 199 197 192 189 196 203 211 207
100 89 71 112 120 127 112 102 135 150 142 143 149 150 147 145 148 153 156 156 158 156 149 150 152 145 141 142 151 149 162 157 157 170 172 165 161 159 156 160 175 199 198 183 168 174 168 197 205
73 84 94 221 130 137 114 149 165 152 147 151 157 156 149 153 162 160 153 153 158 152 150 164 155 147 150 147 144 138 152 156 161 162 163 169 165 161 155 164 189 203 180 160 164 166 159 209 205
37 114 165 224 188 148 117 162 172 161 154 160 161 157 160 163 170 163 157 157 156 155 153 154 146 152 159 152 137 138 144 155 163 157 160 171 170 165 156 175 195 185 168 179 188 162 169 183 210
203 184 180 189 196 135 125 162 167 170 163 167 167 162 165 170 175 170 162 159 154 154 153 151 151 158 151 133 98 88 84 120 137 159 174 175 171 166 158 177 192 171 154 173 170 166 171 183 197
176 166 175 196 163 125 161 172 178 177 169 168 170 169 171 173 172 166 162 159 154 155 155 155 152 162 144 129 130 135 156 165 153 186 184 184 176 167 162 174 180 179 175 188 181 166 170 213 150
160 141 169 191 161 146 165 189 189 186 184 178 174 175 173 168 164 166 165 164 165 167 166 161 160 165 165 167 168 167 159 169 179 193 173 187 182 181 175 169 173 181 172 173 178 153 150 227 151
160 168 181 163 125 101 107 5 228 215 198 178 177 175 171 173 174 174 171 171 169 172 174 172 170 169 172 165 134 92 69 50 51 320 229 223 191 188 184 180 175 175 160 175 191 174 162 191 233
211 209 177 164 135 190 152 181 261 210 202 186 179 175 179 180 177 174 172 171 174 177 172 165 166 167 170 159 148 147 149 169 206 201 201 229 208 186 187 188 182 181 174 188 208 186 175 165 200
200 196 179 166 140 96 42 124 273 201 206 204 191 186 184 182 177 177 176 174 172 169 166 164 160 164 164 159 164 153 156 184 192 175 172 219 265 226 208 198 179 183 185 195 200 182 179 179 188
155 77 41 49 72 63 244 142 262 216 205 195 185 183 183 178 175 174 168 159 162 162 160 158 157 165 164 160 172 167 170 172 158 165 176 221 259 273 251 195 173 184 188 195 204 194 192 199 197
89 86 42 9 24 240 241 132 241 237 199 171 169 173 179 173 167 164 162 163 164 163 163 162 162 170 172 170 177 177 173 166 168 170 181 191 211 237 248 215 190 194 205 201 195 194 209 204 201
160 134 153 184 203 265 351 193 262 265 190 153 157 162 160 159 160 166 172 169 167 167 166 162 163 166 169 169 174 169 166 162 161 163 178 187 201 214 216 190 189 194 190 180 167 186 221 195 204
147 160 164 135 123 74 324 308 318 356 71 115 138 144 162 167 162 165 167 163 164 163 165 163 164 167 169 163 142 126 148 161 163 164 163 161 182 166 149 157 152 160 148 139 134 140 220 165 183
152 148 94 106 132 148 277 258 236 230 180 148 158 167 168 158 156 157 161 164 166 165 162 159 160 163 163 161 159 154 146 167 168 151 143 140 139 101 108 95 115 112 105 112 115 118 108 103 91
115 100 108 114 143 145 183 257 230 203 184 172 179 169 161 154 159 162 170 172 164 158 156 159 161 158 159 159 155 138 143 133 137 140 144 139 119 115 118 119 113 111 105 102 95 91 93 94 69
158 168 142 143 187 152 153 253 254 189 177 163 160 158 161 159 163 164 171 168 160 160 159 161 164 166 167 163 153 148 150 143 151 158 164 145 133 132 137 133 119 116 106 104 114 108 83 96 88